Location: Bullenkuhlen
(53.7689°N, 9.7495°E)
Time: 09:12:42
(UTC+00:00)

IGS 5A - Pass Details

Date: 09 April 2020
Orbit: 585 x 587 km, 97.6° (Epoch: 29 May)

Event Time Altitude Azimuth Distance (km) Brightness Sun altitude
Exits shadow 20:20:46 33° 160° (SSE) 1,001 4.1 -17.4°
Maximum altitude 20:22:36 85° 75° (ENE) 597 3.4 -17.6°
Drops below altitude 10° 20:26:47 10° 347° (NNW) 1,924 6.9 -18.0°
Sets 20:28:57 0° 347° (NNW) 2,829 7.9 -18.3°
